Regional Weather Roundup
Issued by NWS Kansas City/Pleasant Hill, MO

Home | Current Version | Previous Version | Graphics & Text | Print | Product List | Glossary Off
Versions: 1 2 3 4 5 6 7 8 9 10 11 12 13 14 15 16 17 18 19 20 21 22 23 24 25 26 27 28 29 30 31 32 33 34 35 36 37 38 39 40 41 42 43 44 45 46 47 48 49 50

416
ASUS43 KEAX 291310
RWREAX

WEATHER ROUNDUP FOR EASTERN KANSAS AND NORTHWEST MISSOURI
NATIONAL WEATHER SERVICE KANSAS CITY/PLEASANT HILL MO
800 AM CDT FRI APR 29 2016

KSZ040-057-103>105-MOZ028-029-037-043-291400-
...KANSAS CITY METROPOLITAN AREA...

CITY           SKY/WX    TMP DP  RH WIND       PRES   REMARKS
K.C. INTL      CLOUDY    48  43  82 NE13      30.05R
K.C. DOWNTOWN  CLOUDY    50  43  77 NE7       30.06R
LEES SUMMIT    CLOUDY    49  44  83 NE9       30.05R
OLATHE - IXD   PTSUNNY   49  43  80 NE7       30.05R
OLATHE - OJC   MOSUNNY   48  42  80 NE13G18   30.04R
LAWRENCE       CLOUDY    48  43  82 NE5       30.05R

$$

MOZ001>008-011>017-020>025-030>033-038>040-044>046-053-054-291400-
...NORTHERN AND CENTRAL MISSOURI...

CITY           SKY/WX    TMP DP  RH WIND       PRES   REMARKS
ST. JOSEPH     CLOUDY    47  42  83 N7        30.08R
MOSBY          CLOUDY    48  43  81 N6        30.05R
WARRENSBURG    PTSUNNY   48  45  87 N7        30.05R
WHITEMAN AFB   CLOUDY    49  49  99 NE7       30.05R
CLINTON        CLOUDY    50  46  87 NE7       30.04S
SEDALIA        PTSUNNY   51  47  86 E8        30.06R
WARSAW         NOT AVBL
CHILLICOTHE      N/A     50  45  83 NE6       30.08S
KIRKSVILLE     CLOUDY    49  46  90 N7        30.07R

$$

MOZ041-047>049-056>058-063>065-088>090-097-291400-
...EASTERN AND SOUTHERN MISSOURI...

CITY           SKY/WX    TMP DP  RH WIND       PRES   REMARKS
ST. LOUIS INTL CLOUDY    56  48  74 NE8       30.06R
SPIRIT OF STL  CLOUDY    55  49  80 NE6       30.05R
COLUMBIA       CLOUDY    51  48  89 E8        30.05R
JEFFERSON CITY PTSUNNY   51  48  89 SE5       30.06R
ROLLA          CLOUDY    51  46  83 SE6       30.05R
OSAGE BEACH    CLOUDY    50  41  71 E5        30.05F
SPRINGFIELD    CLOUDY    53  46  77 E12       29.97F
BRANSON        LGT RAIN  54  50  87 CALM      30.00R
JOPLIN         CLOUDY    53  47  79 NE12G22   29.97R
WEST PLAINS    CLOUDY    53  47  79 NE10      30.02R

$$

IAZ060-094-KSZ022-034>040-054-083-096-NEZ052-066-093-291400-
...KANSAS...SOUTHEAST NEBRASKA AND IOWA...

CITY           SKY/WX    TMP DP  RH WIND       PRES   REMARKS
TOPEKA         CLOUDY    48  41  76 NE13      30.05R
MANHATTAN      CLOUDY    48  40  73 NE16G22   30.04R
EMPORIA        CLOUDY    48  43  82 NE17G23   29.99R
CHANUTE        CLOUDY    51  44  77 E12G24    29.96F
WICHITA        RAIN      50  45  83 N15G24    29.97R
OMAHA          CLOUDY    45  41  86 N12       30.08F
LINCOLN        CLOUDY    45  40  82 N13       30.07F
FALLS CITY     CLOUDY    47  40  76 NE9       30.07R
LAMONI         CLOUDY    46  43  89 NE6       30.05S
DES MOINES     CLOUDY    47  42  83 N14       30.06F

$$





USA.gov is the U.S. government's official web portal to all federal, state and local government web resources and services.